Location: Asheville, NC
(35.6000°N, 82.5500°W)
Time: 03:29:23
(UTC-04:00)

Vanguard 1 - Pass Details

Date: 11 March 2018
Orbit: 650 x 3833 km, 34.3° (Epoch: 19 June)

Event Time Altitude Azimuth Distance (km) Brightness Sun altitude
Rises 16:46:44 0° 287° (WNW) 7,449 15.1 31.5°
Reaches altitude 10° 16:52:34 10° 282° (WNW) 6,029 14.9 30.4°
Maximum altitude 17:08:10 47° 217° (SW) 2,571 13.5 27.7°
Drops below altitude 10° 17:16:55 10° 146° (SE) 3,468 12.9 26.1°
Sets 17:19:21 0° 140° (SE) 4,144 13.1 25.6°
